Weather History for 94809 - August, 2013

Change the Weather History Date:

Friday, August 9, 2013

  Actual Average Record
Temperature  
Mean Temperature 58 °F -  
Max Temperature 65 °F - - ()
Min Temperature 47 °F - - ()
Degree Days  
Heating Degree Days 7    
Growing Degree Days 8 (Base 50)    
Moisture  
Dew Point 51 °F    
Average Humidity 71    
Maximum Humidity 100    
Minimum Humidity 45    
Precipitation  
Precipitation 0.00 in - - ()
Sea Level Pressure  
Sea Level Pressure 29.89 in    
Wind  
Wind Speed 10 mph ()    
Max Wind Speed 17 mph    
Max Gust Speed -    
T = Trace of Precipitation, MM = Missing Value Source: Averaged Metar Reports

Daily Weather History Graph

Daily Weather History Graph

Search for Another Location

Airport or City:

Trip Planner

Search our weather history database for the weather conditions in past years. The results will help you decide how hot, cold, wet, or windy it might be!

Date:

Astronomy

Aug. 09, 2013 Rise Set
Actual Time 7:06 AM ACST 5:43 PM ACST
Civil Twilight 6:40 AM ACST 6:09 PM ACST
Nautical Twilight 6:09 AM ACST 6:39 PM ACST
Astronomical Twilight 5:40 AM ACST 7:09 PM ACST
Moon 7:57 AM ACST (8/9) 8:03 PM ACST (8/9)
Length of Visible Light 11h 29m
Length of Day
10h 36m
Waxing Crescent, 5% of the Moon is Illuminated
Aug 9
Waxing Crescent
Aug 14
First Quarter
Aug 21
Full
Aug 28
Last Quarter
Sep 5
New

Hourly Weather History & Observations

Time (ACST) Temp. Dew Point Humidity Pressure Visibility Wind Dir Wind Speed Gust Speed Precip Events Conditions
12:00 AM 58 °F 47 °F 56% 29.91 in - NNW 12.7 mph - -  
1:30 AM 60 °F 46 °F 49% 29.85 in - North 12.7 mph - -  
2:30 AM 61 °F 45 °F 45% 29.84 in - North 13.8 mph - -  
3:00 AM 60 °F 45 °F 47% 29.83 in - North 6.9 mph - -  
4:30 AM 58 °F 47 °F 56% 29.82 in - NNW 10.4 mph - -  
6:00 AM 58 °F 48 °F 62% 29.81 in - North 17.3 mph - -  
7:30 AM 57 °F 51 °F 72% 29.83 in - NNW 12.7 mph - -  
8:30 AM 58 °F 51 °F 71% 29.81 in - NNW 13.8 mph - -  
9:00 AM 60 °F 49 °F 59% 29.84 in - NW 17.3 mph - -  
10:30 AM 61 °F 49 °F 56% 29.83 in - NNW 13.8 mph - -  
11:30 AM 62 °F 48 °F 50% 29.85 in - NW 17.3 mph - -  
12:00 PM 63 °F 48 °F 48% 29.84 in - NW 17.3 mph - -  
1:30 PM 65 °F 54 °F 59% 29.83 in - NW 15.0 mph - -  
2:30 PM 65 °F 57 °F 69% 29.86 in - West 8.1 mph - -  
3:00 PM 65 °F 58 °F 70% 29.86 in - WSW 8.1 mph - -  
4:30 PM 62 °F 58 °F 84% 29.88 in - WSW 9.2 mph - -  
5:30 PM 60 °F 58 °F 90% 29.91 in - WNW 4.6 mph - -  
6:00 PM 58 °F 57 °F 95% 29.93 in - West 6.9 mph - -  
7:30 PM 55 °F 55 °F 99% 29.98 in - West 8.1 mph - -  
8:30 PM 54 °F 54 °F 100% 30.00 in - West 9.2 mph - -  
9:00 PM 52 °F 52 °F 99% 30.01 in - NW 6.9 mph - -  
10:30 PM 51 °F 51 °F 100% 30.02 in - WNW 9.2 mph - -  
11:30 PM 47 °F 47 °F 100% 30.02 in - NW 6.9 mph - -